Location: Staunton
(38.1490°N, 79.0720°W)
Time: 10:17:23
(UTC-04:00)

ISS - Visible Passes

Search period start: 23 March 2017 00:00
Search period end: 02 April 2017 00:00
Orbit: 399 x 409 km, 51.6° (Epoch: 23 March)

Date Brightness Start Highest point End Pass type
(mag) Time Alt. Az. Time Alt. Az. Time Alt. Az.
23 Mar -3.9 05:40:53 62° NW 05:41:22 87° NE 05:44:40 10° SE visible
24 Mar -0.8 04:51:36 14° ESE 04:51:36 14° ESE 04:52:10 10° ESE visible
24 Mar -2.1 06:24:21 16° WSW 06:25:14 17° SW 06:27:29 10° S visible
25 Mar -1.5 05:35:20 15° SSE 05:35:20 15° SSE 05:36:04 10° SSE visible
25 Mar -1.8 20:33:20 10° SSE 20:34:31 14° SSE 20:34:31 14° SSE visible
26 Mar -3.3 21:15:55 10° SW 21:18:26 51° SW 21:18:26 51° SW visible
27 Mar -3.3 20:23:48 10° SSW 20:26:51 39° SE 20:29:21 14° ENE visible
27 Mar -0.9 22:00:45 10° W 22:02:04 18° WNW 22:02:04 18° WNW visible
28 Mar -2.5 21:07:50 10° WSW 21:10:54 38° NNW 21:12:42 20° NNE visible
29 Mar -3.6 20:15:13 10° SW 20:18:27 74° NW 20:21:43 10° NE visible
29 Mar -0.9 21:53:34 10° NW 21:55:24 14° NNW 21:55:46 14° NNW visible
30 Mar -1.3 21:00:15 10° WNW 21:02:44 20° NNW 21:05:15 10° NNE visible
31 Mar -2.0 20:07:12 10° W 20:10:09 31° NNW 20:13:07 10° NNE visible
01 Apr -0.9 20:53:08 10° NW 20:54:40 13° NNW 20:56:13 10° N visible
